Weather History for Sherbrooke, QC

Change the Weather History Date:

Friday, May 31, 2013

  Actual Average Record
Temperature  
Mean Temperature 70 °F -  
Max Temperature 86 °F 64 °F 87 °F (1999)
Min Temperature 54 °F 42 °F 30 °F (2004)
Cooling Degree Days 5    
Growing Degree Days 20 (Base 50)    
Moisture  
Dew Point 59 °F    
Average Humidity 88    
Maximum Humidity 100    
Minimum Humidity 37    
Precipitation  
Precipitation 0.08 in - - ()
Sea Level Pressure  
Sea Level Pressure 30.01 in    
Wind  
Wind Speed 3 mph ()    
Max Wind Speed 21 mph    
Max Gust Speed 30 mph    
Visibility 5.0 miles    
Events Rain , Thunderstorm    
Averages and records for this station are not official NWS values.
T = Trace of Precipitation, MM = Missing Value Source: Averaged Metar Reports

Daily Weather History Graph

Daily Weather History Graph

Search for Another Location

Airport:

Trip Planner

Search our weather history database for the weather conditions in past years. The results will help you decide how hot, cold, wet, or windy it might be!

Date:

Astronomy

May. 31, 2013 Rise Set
Actual Time 5:02 AM EDT 8:27 PM EDT
Civil Twilight 4:25 AM EDT 9:04 PM EDT
Nautical Twilight 3:37 AM EDT 9:52 PM EDT
Astronomical Twilight 2:35 AM EDT 10:54 PM EDT
Moon 12:46 AM EDT (5/31) 12:29 PM EDT (5/31)
Length of Visible Light 16h 38m
Length of Day
15h 25m
Waning Gibbous, 51% of the Moon is Illuminated
May 31
Waning Gibbous
May 31
Last Quarter
Jun 8
New
Jun 16
First Quarter
Jun 23
Full

Hourly Weather History & Observations

Time (EDT) Temp. Heat Index Dew Point Humidity Pressure Visibility Wind Dir Wind Speed Gust Speed Precip Events Conditions
12:00 AM 59.0 °F - 59.0 °F 100% 30.05 in 6.0 mi ENE 3.5 mph - N/A   Clear
12:31 AM 59.0 °F - 59.0 °F 100% 30.05 in 5.0 mi East 2.3 mph - N/A   Scattered Clouds
1:00 AM 59.0 °F - 57.2 °F 94% 30.04 in 4.0 mi Variable 2.3 mph - N/A   Partly Cloudy
1:29 AM 59.0 °F - 59.0 °F 100% 30.04 in 6.0 mi East 3.5 mph - N/A   Clear
1:38 AM 59.0 °F - 57.2 °F 94% 30.04 in 4.0 mi ENE 2.3 mph - N/A   Clear
1:59 AM 57.2 °F - 57.2 °F 100% 30.04 in 2.5 mi East 2.3 mph - N/A   Clear
2:00 AM 58 °F - 57 °F 95% 30.04 in 2 mi East 3.5 mph - -   Mist
2:00 AM 57.2 °F - 57.2 °F 100% 30.04 in 2.5 mi East 2.3 mph - N/A   Clear
2:06 AM 57.2 °F - 57.2 °F 100% 30.04 in 3.0 mi East 2.3 mph - N/A   Clear
2:15 AM 57.2 °F - 57.2 °F 100% 30.04 in 2.5 mi East 2.3 mph - N/A   Clear
2:17 AM 57.2 °F - 57.2 °F 100% 30.04 in 1.8 mi East 2.3 mph - N/A   Clear
2:25 AM 57.2 °F - 57.2 °F 100% 30.04 in 2.2 mi ENE 2.3 mph - N/A   Clear
2:27 AM 57.2 °F - 57.2 °F 100% 30.04 in 3.0 mi ENE 2.3 mph - N/A   Clear
2:34 AM 57.2 °F - 55.4 °F 94% 30.04 in 2.5 mi Calm Calm - N/A   Partly Cloudy
2:35 AM 57.2 °F - 55.4 °F 94% 30.04 in 1.5 mi Calm Calm - N/A   Partly Cloudy
2:38 AM 57.2 °F - 55.4 °F 94% 30.04 in 0.8 mi Calm Calm - N/A   Scattered Clouds
3:00 AM 57.2 °F - 57.2 °F 100% 30.04 in 1.0 mi Variable 2.3 mph - N/A   Partly Cloudy
3:03 AM 57.2 °F - 55.4 °F 94% 30.04 in 2.0 mi Variable 2.3 mph - N/A   Partly Cloudy
3:04 AM 55.4 °F - 55.4 °F 100% 30.04 in 1.8 mi Variable 2.3 mph - N/A   Partly Cloudy
3:17 AM 57.2 °F - 55.4 °F 94% 30.03 in 0.8 mi Calm Calm - N/A   Clear
3:25 AM 55.4 °F - 55.4 °F 100% 30.03 in 1.0 mi SE 2.3 mph - N/A   Clear
3:27 AM 55.4 °F - 55.4 °F 100% 30.03 in 2.0 mi SE 2.3 mph - N/A   Clear
3:28 AM 55.4 °F - 55.4 °F 100% 30.03 in 3.0 mi ESE 2.3 mph - N/A   Clear
3:29 AM 55.4 °F - 55.4 °F 100% 30.03 in 7.0 mi ESE 2.3 mph - N/A   Clear
3:38 AM 57.2 °F - 55.4 °F 94% 30.03 in 5.0 mi Variable 2.3 mph - N/A   Partly Cloudy
3:41 AM 55.4 °F - 55.4 °F 100% 30.03 in 2.0 mi Calm Calm - N/A   Scattered Clouds
3:42 AM 55.4 °F - 55.4 °F 100% 30.03 in 1.5 mi Calm Calm - N/A   Scattered Clouds
3:52 AM 57.2 °F - 55.4 °F 94% 30.03 in 2.0 mi ENE 2.3 mph - N/A   Scattered Clouds
3:57 AM 57.2 °F - 55.4 °F 94% 30.03 in 3.0 mi Calm Calm - N/A   Scattered Clouds
4:00 AM 55.4 °F - 55.4 °F 100% 30.03 in 2.0 mi Calm Calm - N/A   Scattered Clouds
4:01 AM 55.4 °F - 55.4 °F 100% 30.03 in 1.8 mi Calm Calm - N/A   Scattered Clouds
4:09 AM 55.4 °F - 55.4 °F 100% 30.02 in 2.2 mi Calm Calm - N/A   Scattered Clouds
4:10 AM 55.4 °F - 55.4 °F 100% 30.02 in 3.0 mi Calm Calm - N/A   Partly Cloudy
4:11 AM 55.4 °F - 55.4 °F 100% 30.02 in 2.2 mi Calm Calm - N/A   Partly Cloudy
4:13 AM 55.4 °F - 55.4 °F 100% 30.02 in 1.5 mi Calm Calm - N/A   Partly Cloudy
4:23 AM 57.2 °F - 55.4 °F 94% 30.03 in 2.0 mi Calm Calm - N/A   Clear
4:26 AM 57.2 °F - 55.4 °F 94% 30.03 in 3.0 mi Calm Calm - N/A   Clear
4:48 AM 55.4 °F - 55.4 °F 100% 30.03 in 2.5 mi Calm Calm - N/A   Clear
4:49 AM 55.4 °F - 55.4 °F 100% 30.03 in 1.0 mi Calm Calm - N/A   Clear
4:50 AM 55.4 °F - 53.6 °F 94% 30.03 in 0.8 mi Variable 2.3 mph - N/A   Clear
4:59 AM 55.4 °F - 53.6 °F 94% 30.03 in 1.2 mi SE 2.3 mph - N/A   Clear
5:00 AM 55 °F - 54 °F 96% 30.03 in 2 mi ESE 2.3 mph - -   Mist
5:00 AM 55.4 °F - 53.6 °F 94% 30.03 in 2.0 mi ESE 2.3 mph - N/A   Clear
5:02 AM 55.4 °F - 53.6 °F 94% 30.03 in 3.0 mi East 2.3 mph - N/A   Clear
5:03 AM 55.4 °F - 53.6 °F 94% 30.03 in 2.0 mi ESE 2.3 mph - N/A   Clear
5:04 AM 55.4 °F - 55.4 °F 100% 30.03 in 1.0 mi ESE 2.3 mph - N/A   Clear
5:05 AM 55.4 °F - 55.4 °F 100% 30.03 in 0.8 mi ESE 2.3 mph - N/A   Clear
5:14 AM 55.4 °F - 55.4 °F 100% 30.03 in 1.5 mi Calm Calm - N/A   Clear
5:15 AM 55.4 °F - 55.4 °F 100% 30.03 in 3.0 mi Calm Calm - N/A   Clear
5:19 AM 55.4 °F - 55.4 °F 100% 30.03 in 6.0 mi ENE 2.3 mph - N/A   Clear
5:26 AM 57.2 °F - 57.2 °F 100% 30.04 in 4.0 mi Variable 2.3 mph - N/A   Clear
5:29 AM 57.2 °F - 55.4 °F 94% 30.04 in 1.8 mi Variable 2.3 mph - N/A   Clear
5:35 AM 57.2 °F - 55.4 °F 94% 30.04 in 0.8 mi East 2.3 mph - N/A   Clear
5:50 AM 55.4 °F - 55.4 °F 100% 30.04 in 1.0 mi Variable 2.3 mph - N/A   Clear
5:52 AM 57.2 °F - 55.4 °F 94% 30.04 in 2.2 mi Variable 2.3 mph - N/A   Clear
5:53 AM 57.2 °F - 55.4 °F 94% 30.04 in 3.0 mi Calm Calm - N/A   Clear
6:00 AM 57.2 °F - 55.4 °F 94% 30.04 in 7.0 mi Variable 2.3 mph - N/A   Partly Cloudy
6:07 AM 57.2 °F - 57.2 °F 100% 30.04 in 5.0 mi Calm Calm - N/A   Partly Cloudy
6:22 AM 59.0 °F - 59.0 °F 100% 30.04 in 6.0 mi Variable 2.3 mph - N/A   Partly Cloudy
7:00 AM 64.4 °F - 62.6 °F 94% 30.04 in 9.0 mi Calm Calm - N/A   Clear
8:00 AM 71 °F - 63 °F 70% 30.03 in 10 mi SW 4.6 mph - -  
8:00 AM 71.6 °F - 62.6 °F 73% 30.03 in 9.0 mi SW 5.8 mph - N/A   Clear
9:00 AM 75.2 °F - 64.4 °F 69% 30.02 in 9.0 mi WSW 9.2 mph - N/A   Clear
10:00 AM 78.8 °F - 64.4 °F 61% 30.01 in 9.0 mi SW 11.5 mph - N/A   Clear
11:00 AM 80 °F - 65 °F 50% 30.00 in 10 mi SW 11.5 mph - -  
11:00 AM 80.6 °F 82.3 °F 64.4 °F 58% 30.00 in 9.0 mi WSW 12.7 mph 23.0 mph N/A   Scattered Clouds
11:03 AM 78.8 °F - 66.2 °F 65% 30.00 in 9.0 mi WSW 12.7 mph 18.4 mph N/A Thunderstorm Thunderstorm
11:10 AM 77.0 °F - 66.2 °F 69% 30.03 in 8.0 mi West 20.7 mph 29.9 mph N/A Rain , Thunderstorm Light Thunderstorms and Rain
11:16 AM 71.6 °F - 68.0 °F 88% 30.02 in 5.0 mi WSW 9.2 mph 29.9 mph N/A Rain , Thunderstorm Light Thunderstorms and Rain
11:20 AM 69.8 °F - 68.0 °F 94% 30.02 in 6.0 mi West 6.9 mph 26.5 mph N/A Rain , Thunderstorm Light Thunderstorms and Rain
11:25 AM 69.8 °F - 68.0 °F 94% 30.03 in 9.0 mi West 4.6 mph - N/A Rain , Thunderstorm Light Thunderstorms and Rain
11:36 AM 69.8 °F - 68.0 °F 94% 30.02 in 9.0 mi SW 4.6 mph - N/A Thunderstorm Thunderstorm
11:57 AM 71.6 °F - 68.0 °F 88% 30.01 in 9.0 mi SW 4.6 mph - N/A   Clear
12:00 PM 71.6 °F - 68.0 °F 88% 30.01 in 9.0 mi SW 5.8 mph - N/A   Clear
1:00 PM 78.8 °F - 68.0 °F 69% 29.99 in 9.0 mi SW 5.8 mph - N/A   Clear
2:00 PM 84 °F - 66 °F 45% 29.98 in 10 mi West 10.4 mph - -   Clear
2:00 PM 84.2 °F 86.6 °F 66.2 °F 55% 29.97 in 9.0 mi WNW 12.7 mph - N/A   Partly Cloudy
3:00 PM 84.2 °F 86.6 °F 66.2 °F 55% 29.95 in 9.0 mi WSW 11.5 mph - N/A   Clear
4:00 PM 84.2 °F 85.6 °F 64.4 °F 51% 29.92 in 9.0 mi WSW 13.8 mph 20.7 mph N/A   Overcast
5:00 PM 85 °F - 63 °F 37% 29.90 in 10 mi WSW 11.5 mph - -  
5:00 PM 84.2 °F 85.0 °F 62.6 °F 48% 29.90 in 9.0 mi WSW 11.5 mph 17.3 mph N/A   Mostly Cloudy
6:00 PM 86.0 °F 86.6 °F 62.6 °F 45% 29.88 in 9.0 mi SW 11.5 mph 19.6 mph N/A   Clear
7:00 PM 84.2 °F 85.6 °F 64.4 °F 51% 29.88 in 9.0 mi WSW 5.8 mph - N/A   Clear
8:00 PM 77 °F - 67 °F 63% 29.89 in 10 mi SW 2.3 mph - -  
8:00 PM 77.0 °F - 66.2 °F 69% 29.89 in 9.0 mi SW 2.3 mph - N/A   Partly Cloudy
8:34 PM 73.4 °F - 66.2 °F 78% 29.89 in 9.0 mi South 4.6 mph - N/A Thunderstorm Scattered Clouds
8:35 PM 73.4 °F - 66.2 °F 78% 29.90 in 9.0 mi South 8.1 mph - N/A Thunderstorm Thunderstorm
9:00 PM 73.4 °F - 64.4 °F 73% 29.89 in 9.0 mi SSE 4.6 mph 21.9 mph N/A Thunderstorm Thunderstorm
9:37 PM 69.8 °F - 64.4 °F 83% 29.91 in 9.0 mi Calm Calm - N/A Thunderstorm Partly Cloudy
10:00 PM 68.0 °F - 64.4 °F 88% 29.92 in 9.0 mi Variable 2.3 mph - N/A Thunderstorm Partly Cloudy
10:02 PM 68.0 °F - 64.4 °F 88% 29.92 in 9.0 mi Calm Calm - N/A   Scattered Clouds
11:00 PM 68 °F - 64 °F 82% 29.92 in 10 mi South 4.6 mph - -  
11:00 PM 68.0 °F - 64.4 °F 88% 29.92 in 9.0 mi South 5.8 mph - N/A   Clear